GSAT0216 (GALILEO 20) (43056 NORAD) Tracking and Keplerian Element Data

This shows tracking and keplerian element data for the satellite.

Feedback or suggestion? Click here.




ElementValue
Catalog43056
NameGSAT0216 (GALILEO 20)
Epoch Orbit4255
Epoch Day286.32835482
Epoch Year2024
RAAN238.3731
Inclination55.2945
Eccentricity0.0004209
Argument of Perigee284.9808
Mean Anonmoly74.9502
Mean Motion1.70473857
Decay Rate1.3E-07
L11 43056U 17079B 24286.32835482 .00000013 00000+0 00000+0 0 9991
L22 43056 55.2945 238.3731 0004209 284.9808 74.9502 1.70473857 42556



Live tracking and technical data element details for GSAT0216 (GALILEO 20) (NORAD 43056). GSAT0216 (GALILEO 20) can be tracked NOW for your location showing map with azimuth and elevation plus other details from your city location.







IsCatalogInMostPopularTable: catalog: 43056, numindb: 826
Update: records affected: 1



GetName: 43056 GSAT0216 (GALILEO 20)

Hit Count: updated at: Wed, 04 Dec 2024 20:42:48 GMT